Weather in Huehuetenango

Guatemala     15°16′57″N   91°28′10″W
temp.,
°C
wind,
m/s
gust,
m/s
humid.,
%
clouds,
%
prec.,
mm/h
press.,
hPa
HPBL,
m
20 april, tue
tue2000:00+16se1182100 4.5 101624
03:00+15nw1185100 1.5 101517
06:00+15wnw118699 2.8 101616
09:00+20sse016572 0.4 1017721
12:00+24ese124757 1.8 10141857
15:00+18ne237899 3.3 1014357
18:00+15wnw2384100 9.8 1016203
21:00+16wnw1181100 0.0 101862
21 april, wed
wed2100:00+14ese118397 0.0 101911
03:00+13ne118483 0.0 101711
06:00+12wnw1186100 0.0 101810
09:00+18se1266100 0.0 1018686
12:00+22se2351100 0.5 10161425
15:00+18wnw2472100 1.6 1014185
18:00+17e127468 3.0 101591
21:00+14ene1283100 0.1 101932
22 april, thu
thu2200:00+13ese118799 0.1 101914
03:00+12ese119281 0.0 101710
06:00+12ese11945 0.0 101915
09:00+18ese23635 0.0 1018862
12:00+24se34355 0.0 10142010
15:00+25ese343370 0.0 10102579
18:00+19ese246295 0.3 1013360
21:00+16se138272 0.4 1017117
23 april, fri
fri2300:00+13ese129333 0.4 101956
03:00+12se119636 0.0 101714
06:00+12se119261 0.0 1018208
09:00+19ese12565 0.0 1017750
12:00+24ese34240 0.0 10131935
15:00+25ese44230 0.0 10102320
18:00+20e364491 0.0 1012223
21:00+16wnw0161100 0.0 101611
24 april, sat
sat2400:00+14ene0167100 0.0 101610
03:00+13nw0171100 0.0 101510
06:00+12wnw0173100 0.0 101611
09:00+20wsw014495 0.0 1015803
12:00+26nw1228100 0.0 10121910
15:00+27nw333098 0.0 10082661
18:00+21nne2351100 0.0 1011113
21:00+19nw1164100 0.1 101551